Regional Weather Roundup
Issued by NWS

Home | Current Version | Previous Version | Graphics & Text | Print | Product List | Glossary On
Versions: 1 2 3 4 5 6 7 8 9 10 11 12 13 14 15 16 17 18 19 20 21 22 23 24 25 26 27 28 29 30 31 32 33 34 35 36 37 38 39 40 41 42 43 44 45 46 47 48 49 50
000
ASUS43 KLMK 280202
RWRKY
KENTUCKY REGIONAL WEATHER ROUNDUP
NATIONAL WEATHER SERVICE LOUISVILLE KY
1000 PM EDT FRI MAY 27 2016

NOTE "FAIR" INDICATES FEW OR NO CLOUDS BELOW 12,000 FEET
WITH NO SIGNIFICANT WEATHER AND/OR OBSTRUCTIONS TO VISIBILITY.

KYZ001>023-026-027-061>063-070>075-280300-
WESTERN AND SOUTH CENTRAL KENTUCKY

CITY           SKY/WX    TMP DP  RH WIND       PRES   REMARKS
PADUCAH        CLOUDY    75  65  70 SE8       29.87F
HENDERSON      CLOUDY    77  63  61 SE5       29.91R
OWENSBORO      CLOUDY    79  66  64 S7        29.94S
HOPKINSVILLE   NOT AVBL
BOWLING GREEN  CLOUDY    77  67  71 CALM      29.97R
GLASGOW        NOT AVBL
$$

KYZ024-025-028>034-038-045-046-053-280300-
NORTH CENTRAL KENTUCKY

CITY           SKY/WX    TMP DP  RH WIND       PRES   REMARKS
LOUISVILLE/SDF CLOUDY    80  65  59 SE5       29.97R
LOUISVILLE/LOU PTCLDY    80  65  59 SE3       29.98R
FORT KNOX      CLOUDY    73  67  81 SE2       29.97R
$$

KYZ035>037-039>044-047>052-055>060-089>105-280300-
NORTHEAST KENTUCKY

CITY           SKY/WX    TMP DP  RH WIND       PRES   REMARKS
LEXINGTON      PTCLDY    77  65  66 SE6       30.02R
COVINGTON      MOCLDY    75  65  70 S5        30.00R
FRANKFORT      PTCLDY    77  66  68 SE3       29.99R
$$

KYZ054-064>069-076>088-106>120-280300-
SOUTHEAST KENTUCKY

CITY           SKY/WX    TMP DP  RH WIND       PRES   REMARKS
JACKSON        RAIN      68  64  87 SE6       30.08F
LONDON         PTCLDY    71  64  78 CALM      30.06R
SOMERSET       NOT AVBL
MIDDLESBORO    NOT AVBL
MONTICELLO     PTCLDY    70  67  90 NE7       30.05R
$$





USA.gov is the U.S. government's official web portal to all federal, state and local government web resources and services.